FW1293 Weather Reports


time (UTC)temp
C
wind
direction
speed
KPH
gust
KPH
rain 1hr
cm
rain 24hr
cm
rain mn
cm
humidity
%
barometer
mb
20260504081541 5 102 14.5 20.9 0.00 0.00 0.00 86 1009.7
20260504060104 4 94 3.2 14.5 0.00 0.00 0.00 74 1010.1
20260504044556 4 117 8.0 17.7 0.00 0.00 0.00 62 1010.5
20260504043058 5 92 4.8 22.5 0.00 0.00 0.00 60 1010.7
20260504041554 5 99 1.6 12.9 0.00 0.00 0.00 59 1010.8
20260504040022 4 47 3.2 14.5 0.00 0.00 0.00 59 1010.9
20260504034522 4 95 1.6 3.2 0.00 0.00 0.00 56 1010.7
20260504033019 3 120 3.2 8.0 0.00 0.00 0.00 57 1010.7
20260504031519 3 116 1.6 4.8 0.00 0.00 0.00 57 1010.7
20260504030020 3 129 0.0 4.8 0.00 0.00 0.00 57 1010.7
20260504024518 3 148 3.2 6.4 0.00 0.00 0.00 58 1010.8
20260504023015 3 117 3.2 11.3 0.00 0.00 0.00 59 1010.8
20260504021515 3 129 1.6 4.8 0.00 0.00 0.00 58 1010.9
20260504020021 3 117 1.6 4.8 0.00 0.00 0.00 59 1010.9
20260504014514 3 86 3.2 8.0 0.00 0.00 0.00 60 1010.9
20260504013056 3 235 0.0 6.4 0.00 0.00 0.00 59 1010.8
20260504011543 3 234 1.6 6.4 0.00 0.00 0.00 59 1010.7
20260504010042 3 221 1.6 9.7 0.00 0.00 0.00 60 1010.6
20260504004540 3 167 1.6 4.8 0.00 0.00 0.00 62 1010.4
20260504003039 3 137 0.0 4.8 0.00 0.00 0.00 61 1010.4
20260504001543 4 138 0.0 8.0 0.00 0.00 0.00 61 1010.3
20260504000037 5 90 3.2 6.4 0.00 0.00 0.00 59 1010.1
20260503234536 5 114 3.2 11.3 0.00 0.00 0.00 58 1010.2
20260503233036 5 73 3.2 11.3 0.00 0.00 0.00 58 1010.1
20260503231535 6 88 6.4 17.7 0.00 0.00 0.00 57 1009.9
20260503230013 5 67 1.6 11.3 0.00 0.00 0.00 58 1009.9
20260503224504 5 97 8.0 16.1 0.00 0.00 0.00 57 1009.9
20260503223035 6 78 4.8 16.1 0.00 0.00 0.00 58 1009.9
20260503221533 6 74 4.8 20.9 0.00 0.00 0.00 55 1010.0
20260503220029 6 98 3.2 16.1 0.00 0.00 0.00 58 1009.8
20260503214629 6 54 11.3 19.3 0.00 0.00 0.00 57 1009.8
20260503213027 6 98 9.7 19.3 0.00 0.00 0.00 58 1009.8
20260503211526 5 77 3.2 24.1 0.00 0.00 0.00 60 1009.8
20260503210024 5 85 6.4 19.3 0.00 0.00 0.00 61 1009.8
20260503204524 5 89 9.7 24.1 0.00 0.00 0.00 60 1009.8
20260503203032 5 77 12.9 30.6 0.00 0.00 0.00 61 1009.8
20260503201521 5 165 8.0 17.7 0.00 0.00 0.00 62 1009.7
20260503200026 5 96 11.3 24.1 0.00 0.00 0.00 63 1009.8
20260503200020 5 86 11.3 24.1 0.00 0.00 0.00 63 1009.8
20260503194549 4 117 11.3 25.7 0.00 0.00 0.00 63 1009.9
20260503193051 5 86 9.7 24.1 0.00 0.00 0.00 61 1010.0
20260503191606 4 67 14.5 25.7 0.00 0.00 0.00 64 1009.9
20260503190045 5 84 9.7 27.4 0.00 0.00 0.00 65 1010.2
20260503184544 5 59 14.5 29.0 0.00 0.00 0.00 60 1010.1
20260503183044 5 154 9.7 27.4 0.00 0.00 0.00 57 1010.1
20260503181548 4 47 9.7 22.5 0.00 0.00 0.00 59 1010.1
20260503180042 5 123 11.3 20.9 0.00 0.00 0.00 60 1010.1
20260503174546 4 107 3.2 19.3 0.00 0.00 0.00 61 1010.2
20260503173040 4 212 9.7 25.7 0.00 0.00 0.00 59 1010.1
20260503171509 4 67 6.4 20.9 0.00 0.00 0.00 59 1010.2
20260503160108 5 68 9.7 22.5 0.00 0.00 0.00 56 1010.4